Weather History for KPRG - January, 2013

Change the Weather History Date:

Tuesday, January 1, 2013

  Actual Average (KHUF) Record (KHUF)
Temperature  
Mean Temperature 18 °F 28 °F  
Max Temperature 28 °F 36 °F 63 °F (1966)
Min Temperature 7 °F 21 °F -13 °F (1968)
Degree Days  
Heating Degree Days 48 37  
Month to date heating degree days 37  
Since 1 July heating degree days 2148  
Cooling Degree Days 0 0  
Month to date cooling degree days 0  
Year to date cooling degree days 0  
Moisture  
Dew Point 17 °F    
Average Humidity 85    
Maximum Humidity 94    
Minimum Humidity 75    
Precipitation  
Precipitation 0.00 in 0.10 in 1.58 in (1966)
Month to date precipitation 0.10  
Year to date precipitation 0.10  
Sea Level Pressure  
Sea Level Pressure 30.16 in    
Wind  
Wind Speed 6 mph (NNW)    
Max Wind Speed 10 mph    
Max Gust Speed -    
Visibility 9 miles    
Events Snow    
T = Trace of Precipitation, MM = Missing Value Source: NWS Daily Summary

Daily Weather History Graph

Daily Weather History Graph

Search for Another Location

Airport or City:

Trip Planner

Search our weather history database for the weather conditions in past years. The results will help you decide how hot, cold, wet, or windy it might be!

Date:

Astronomy

Jan. 01, 2013 Rise Set
Actual Time 7:11 AM CST 4:37 PM CST
Civil Twilight 6:41 AM CST 5:07 PM CST
Nautical Twilight 6:07 AM CST 5:41 PM CST
Astronomical Twilight 5:34 AM CST 6:14 PM CST
Moon 9:07 PM CST (1/1) 9:24 AM CST (1/1)
Length of Visible Light 10h 26m
Length of Day
9h 25m
Waning Gibbous, 83% of the Moon is Illuminated
Jan 1
Waning Gibbous
Jan 4
Last Quarter
Jan 11
New
Jan 18
First Quarter
Jan 26
Full

Hourly Weather History & Observations

Time (CST) Temp. Windchill Dew Point Humidity Pressure Visibility Wind Dir Wind Speed Gust Speed Precip Events Conditions
12:15 AM 28.9 °F 23.9 °F 27.5 °F 94% 30.08 in 7.0 mi NNW 4.6 mph - N/A   Overcast
12:35 AM 28.4 °F 23.3 °F 26.4 °F 92% 30.09 in 7.0 mi NNW 4.6 mph - N/A Snow Light Snow
12:55 AM 28.2 °F 22.0 °F 25.7 °F 90% 30.09 in 10.0 mi NNW 5.8 mph - N/A   Overcast
1:15 AM 28.0 °F 20.0 °F 25.7 °F 91% 30.09 in 10.0 mi North 8.1 mph - N/A   Overcast
1:35 AM 26.6 °F 19.1 °F 23.9 °F 90% 30.10 in 10.0 mi NNW 6.9 mph - N/A   Overcast
1:55 AM 26.2 °F 17.8 °F 23.4 °F 89% 30.10 in 10.0 mi NNW 8.1 mph - N/A   Overcast
2:15 AM 25.7 °F 20.1 °F 22.6 °F 88% 30.09 in 10.0 mi North 4.6 mph - N/A   Overcast
2:35 AM 25.2 °F 18.3 °F 22.1 °F 88% 30.10 in 10.0 mi NNW 5.8 mph - N/A   Overcast
2:55 AM 24.8 °F 16.1 °F 21.9 °F 89% 30.12 in 10.0 mi NNW 8.1 mph - N/A   Overcast
3:15 AM 24.3 °F 16.3 °F 21.2 °F 88% 30.11 in 10.0 mi NNW 6.9 mph - N/A   Overcast
3:35 AM 24.3 °F 18.4 °F 21.2 °F 88% 30.11 in 10.0 mi North 4.6 mph - N/A   Overcast
3:55 AM 24.3 °F 19.9 °F 21.2 °F 88% 30.11 in 10.0 mi NNW 3.5 mph - N/A   Overcast
4:15 AM 23.9 °F 16.8 °F 21.2 °F 89% 30.11 in 10.0 mi NNW 5.8 mph - N/A   Overcast
4:35 AM 23.9 °F 16.8 °F 21.0 °F 89% 30.11 in 10.0 mi NNW 5.8 mph - N/A   Overcast
4:55 AM 23.9 °F 19.5 °F 21.0 °F 89% 30.12 in 7.0 mi NNW 3.5 mph - N/A   Overcast
5:15 AM 23.9 °F 19.5 °F 21.2 °F 89% 30.13 in 7.0 mi NNW 3.5 mph - N/A   Overcast
5:35 AM 23.9 °F 16.8 °F 21.2 °F 89% 30.13 in 7.0 mi NNW 5.8 mph - N/A   Overcast
5:55 AM 23.9 °F 15.8 °F 21.2 °F 89% 30.14 in 7.0 mi NNW 6.9 mph - N/A   Overcast
6:15 AM 23.9 °F 18.0 °F 21.2 °F 89% 30.14 in 7.0 mi North 4.6 mph - N/A   Overcast
6:35 AM 23.9 °F 18.0 °F 21.2 °F 89% 30.15 in 7.0 mi NNW 4.6 mph - N/A   Overcast
6:55 AM 23.9 °F 18.0 °F 21.2 °F 89% 30.15 in 7.0 mi NNW 4.6 mph - N/A   Overcast
7:15 AM 23.7 °F 15.6 °F 20.8 °F 89% 30.15 in 7.0 mi NNW 6.9 mph - N/A   Overcast
7:35 AM 23.4 °F 15.2 °F 20.3 °F 88% 30.10 in 5.0 mi North 6.9 mph - N/A   Overcast
7:55 AM 23.0 °F 15.8 °F 19.9 °F 88% 30.13 in 7.0 mi North 5.8 mph - N/A   Overcast
8:15 AM 23.4 °F 16.2 °F 19.4 °F 85% 30.14 in 7.0 mi North 5.8 mph - N/A   Overcast
8:35 AM 23.4 °F 18.9 °F 19.2 °F 84% 30.18 in 7.0 mi NNW 3.5 mph - N/A   Overcast
8:55 AM 23.0 °F 15.8 °F 19.4 °F 86% 30.19 in 10.0 mi NNW 5.8 mph - N/A   Overcast
9:15 AM 23.0 °F 14.7 °F 18.5 °F 83% 30.19 in 10.0 mi NNW 6.9 mph - N/A   Overcast
9:35 AM 23.0 °F 13.9 °F 18.3 °F 82% 30.18 in 10.0 mi North 8.1 mph - N/A   Mostly Cloudy
9:55 AM 23.5 °F 15.4 °F 18.5 °F 81% 30.19 in 10.0 mi NNW 6.9 mph - N/A   Scattered Clouds
10:15 AM 23.2 °F 15.0 °F 17.6 °F 79% 30.20 in 10.0 mi NNW 6.9 mph - N/A   Clear
10:35 AM 23.0 °F 12.4 °F 18.0 °F 81% 30.20 in 10.0 mi NNW 10.4 mph - N/A   Clear
10:55 AM 22.5 °F 13.2 °F 17.2 °F 80% 30.20 in 10.0 mi NNW 8.1 mph - N/A   Clear
11:15 AM 22.6 °F 14.3 °F 17.2 °F 80% 30.17 in 10.0 mi NNW 6.9 mph - N/A   Clear
11:35 AM 23.0 °F 14.7 °F 17.4 °F 79% 30.15 in 10.0 mi NNW 6.9 mph - N/A   Clear
11:55 AM 22.8 °F 13.6 °F 16.7 °F 77% 30.16 in 10.0 mi NNW 8.1 mph - N/A   Clear
12:15 PM 22.6 °F 13.4 °F 17.2 °F 80% 30.17 in 10.0 mi NNW 8.1 mph - N/A   Scattered Clouds
12:35 PM 23.5 °F 13.7 °F 17.8 °F 79% 30.16 in 10.0 mi NNW 9.2 mph - N/A   Scattered Clouds
12:55 PM 24.1 °F 15.2 °F 17.6 °F 76% 30.16 in 10.0 mi NNW 8.1 mph - N/A   Mostly Cloudy
1:15 PM 24.4 °F 14.9 °F 17.6 °F 75% 30.15 in 10.0 mi NNW 9.2 mph - N/A   Mostly Cloudy
1:35 PM 24.1 °F 14.4 °F 18.0 °F 77% 30.17 in 10.0 mi NNW 9.2 mph - N/A   Scattered Clouds
1:55 PM 23.9 °F 18.0 °F 17.4 °F 76% 30.15 in 10.0 mi NNW 4.6 mph - N/A   Clear
2:15 PM 23.7 °F 17.8 °F 18.1 °F 79% 30.14 in 10.0 mi NW 4.6 mph - N/A   Scattered Clouds
2:35 PM 23.5 °F - 17.6 °F 78% 30.15 in 10.0 mi Calm Calm - N/A   Mostly Cloudy
2:55 PM 23.0 °F 18.4 °F 17.6 °F 80% 30.15 in 10.0 mi NNW 3.5 mph - N/A   Mostly Cloudy
3:15 PM 21.9 °F 17.2 °F 17.2 °F 82% 30.17 in 10.0 mi NW 3.5 mph - N/A   Mostly Cloudy
3:35 PM 22.1 °F - 17.6 °F 83% 30.16 in 10.0 mi Calm Calm - N/A   Overcast
3:55 PM 21.2 °F 16.4 °F 17.1 °F 84% 30.16 in 10.0 mi NW 3.5 mph - N/A   Mostly Cloudy
4:15 PM 19.9 °F 13.4 °F 16.0 °F 85% 30.16 in 10.0 mi WNW 4.6 mph - N/A   Scattered Clouds
4:35 PM 19.9 °F 13.4 °F 16.2 °F 85% 30.17 in 10.0 mi WNW 4.6 mph - N/A   Mostly Cloudy
4:55 PM 18.1 °F 10.0 °F 14.9 °F 87% 30.18 in 10.0 mi NW 5.8 mph - N/A   Mostly Cloudy
5:15 PM 17.8 °F 7.5 °F 14.5 °F 87% 30.19 in 10.0 mi WNW 8.1 mph - N/A   Scattered Clouds
5:35 PM 17.6 °F 8.2 °F 14.0 °F 86% 30.19 in 10.0 mi NW 6.9 mph - N/A   Clear
5:55 PM 17.2 °F 8.9 °F 13.8 °F 86% 30.20 in 10.0 mi WNW 5.8 mph - N/A   Clear
6:15 PM 16.7 °F 7.2 °F 13.1 °F 86% 30.21 in 10.0 mi WNW 6.9 mph - N/A   Clear
6:35 PM 16.5 °F 6.9 °F 12.6 °F 84% 30.20 in 10.0 mi NW 6.9 mph - N/A   Clear
6:55 PM 16.7 °F 7.2 °F 12.2 °F 82% 30.20 in 10.0 mi NW 6.9 mph - N/A   Mostly Cloudy
7:15 PM 16.7 °F 8.3 °F 12.0 °F 82% 30.20 in 10.0 mi NW 5.8 mph - N/A   Overcast
7:35 PM 16.5 °F 6.9 °F 11.3 °F 80% 30.21 in 10.0 mi NW 6.9 mph - N/A   Mostly Cloudy
7:55 PM 14.4 °F - 9.9 °F 82% 30.20 in 10.0 mi Calm Calm - N/A   Clear
8:15 PM 11.7 °F - 7.7 °F 84% 30.21 in - Calm Calm - N/A   Unknown
8:35 PM 10.2 °F 3.8 °F 6.8 °F 86% 30.21 in - West 3.5 mph - N/A   Unknown
8:55 PM 10.4 °F 2.2 °F 7.3 °F 87% 30.21 in - West 4.6 mph - N/A   Unknown
9:15 PM 10.0 °F 1.8 °F 6.6 °F 86% 30.21 in - West 4.6 mph - N/A   Unknown
9:35 PM 8.6 °F - 5.2 °F 86% 30.22 in - Calm Calm - N/A   Unknown
9:55 PM 7.9 °F -2.2 °F 4.6 °F 87% 30.22 in - WNW 5.8 mph - N/A   Unknown
10:15 PM 7.7 °F - 4.3 °F 86% 30.21 in - Calm Calm - N/A   Unknown
10:35 PM 7.9 °F 1.2 °F 4.8 °F 87% 30.22 in - WNW 3.5 mph - N/A   Unknown
10:55 PM 8.1 °F - 4.8 °F 87% 30.23 in - Calm Calm - N/A   Unknown
11:15 PM 8.1 °F -0.5 °F 5.0 °F 87% 30.21 in - NW 4.6 mph - N/A   Unknown
11:35 PM 8.1 °F -0.5 °F 5.0 °F 87% 30.22 in - WNW 4.6 mph - N/A   Unknown
11:55 PM 8.6 °F 2.0 °F 5.4 °F 87% 30.21 in - NW 3.5 mph - N/A   Unknown